Location: Lake Crest
(37.6062°N, 88.9176°W)
Time: 23:33:01
(UTC+00:00)

Cosmos 2221 Rocket - Pass Details

Date: 15 December 2019
Orbit: 621 x 648 km, 82.5° (Epoch: 26 January)

Event Time Altitude Azimuth Distance (km) Brightness Sun altitude
Exits shadow 10:51:56 21° 13° (NNE) 1,419 5.4 -25.2°
Maximum altitude 10:54:40 49° 80° (E) 810 4.4 -24.7°
Drops below altitude 10° 10:58:56 10° 155° (SSE) 1,991 6.6 -23.8°
Sets 11:01:13 0° 161° (SSE) 2,897 7.4 -23.4°
